Weather History for PAFA - October, 2011

Change the Weather History Date:

Sunday, October 9, 2011

  Actual Average Record
Temperature  
Mean Temperature 39 °F 30 °F  
Max Temperature 48 °F 38 °F 67 °F (1911)
Min Temperature 29 °F 23 °F -1 °F (1928)
Degree Days  
Heating Degree Days 26 35  
Month to date heating degree days 230 285  
Since 1 July heating degree days 1045 1279  
Cooling Degree Days 0 0  
Month to date cooling degree days 0 0  
Year to date cooling degree days 39 61  
Moisture  
Dew Point 28 °F    
Average Humidity 68    
Maximum Humidity 82    
Minimum Humidity 48    
Precipitation  
Precipitation 0.00 in 0.03 in 0.58 in (1963)
Month to date precipitation T 0.26  
Year to date precipitation 7.81 8.93  
Snow  
Snow 0.00 in 0.30 in 6.60 in (1963)
Month to date snowfall T 2.1  
Since 1 July snowfall T 3.9  
Since 1 September snowfall T 3.9  
Snow Depth 0.00 in    
Sea Level Pressure  
Sea Level Pressure 29.66 in    
Wind  
Wind Speed 6 mph (North)    
Max Wind Speed 9 mph    
Max Gust Speed -    
Visibility 10 miles    
Events      
T = Trace of Precipitation, MM = Missing Value Source: NWS Daily Summary

Daily Weather History Graph

Daily Weather History Graph

Search for Another Location

Airport or City:

Trip Planner

Search our weather history database for the weather conditions in past years. The results will help you decide how hot, cold, wet, or windy it might be!

Date:

Astronomy

Oct. 09, 2011 Rise Set
Actual Time 8:25 AM AKDT 6:50 PM AKDT
Civil Twilight 7:35 AM AKDT 7:39 PM AKDT
Nautical Twilight 6:39 AM AKDT 8:36 PM AKDT
Astronomical Twilight 5:39 AM AKDT 9:35 PM AKDT
Moon 5:50 PM AKDT (10/9) 5:49 AM AKDT (10/9)
Length of Visible Light 12h 04m
Length of Day
10h 25m
Waxing Gibbous, 95% of the Moon is Illuminated
Oct 9
Waxing Gibbous
Oct 11
Full
Oct 19
Last Quarter
Oct 26
New
Nov 2
First Quarter

Hourly Weather History & Observations

Time (AKDT) Temp. Windchill Dew Point Humidity Pressure Visibility Wind Dir Wind Speed Gust Speed Precip Events Conditions
12:53 AM 36.0 °F 29.6 °F 27.0 °F 70% 29.70 in 10.0 mi North 8.1 mph - N/A   Scattered Clouds
1:53 AM 35.1 °F 28.6 °F 27.0 °F 72% 29.69 in 10.0 mi North 8.1 mph - N/A   Scattered Clouds
2:53 AM 36.0 °F 29.6 °F 27.0 °F 70% 29.69 in 10.0 mi North 8.1 mph - N/A   Scattered Clouds
3:53 AM 34.0 °F 27.2 °F 27.0 °F 75% 29.68 in 10.0 mi NNE 8.1 mph - N/A   Scattered Clouds
4:53 AM 32.0 °F 26.4 °F 26.1 °F 79% 29.68 in 10.0 mi NNE 5.8 mph - N/A   Scattered Clouds
5:53 AM 34.0 °F 28.0 °F 27.0 °F 75% 29.67 in 10.0 mi North 6.9 mph - N/A   Mostly Cloudy
6:53 AM 33.1 °F 25.5 °F 26.1 °F 75% 29.66 in 10.0 mi NNE 9.2 mph - N/A   Mostly Cloudy
7:53 AM 30.9 °F 23.5 °F 26.1 °F 82% 29.66 in 10.0 mi North 8.1 mph - N/A   Mostly Cloudy
8:53 AM 34.0 °F 28.0 °F 26.1 °F 73% 29.66 in 10.0 mi North 6.9 mph - N/A   Mostly Cloudy
9:53 AM 37.0 °F 33.3 °F 28.0 °F 70% 29.66 in 10.0 mi NNE 4.6 mph - N/A   Mostly Cloudy
10:53 AM 37.9 °F 33.5 °F 28.0 °F 68% 29.66 in 10.0 mi North 5.8 mph - N/A   Mostly Cloudy
11:53 AM 39.0 °F 36.8 °F 28.0 °F 65% 29.66 in 10.0 mi NNE 3.5 mph - N/A   Mostly Cloudy
12:53 PM 41.0 °F 39.0 °F 28.0 °F 60% 29.66 in 10.0 mi Variable 3.5 mph - N/A   Mostly Cloudy
1:53 PM 43.0 °F - 28.0 °F 56% 29.65 in 10.0 mi Calm Calm - N/A   Scattered Clouds
2:53 PM 46.0 °F - 28.0 °F 50% 29.64 in 10.0 mi Calm Calm - N/A   Scattered Clouds
3:53 PM 46.9 °F - 28.0 °F 48% 29.64 in 10.0 mi Calm Calm - N/A   Scattered Clouds
4:53 PM 46.9 °F - 28.9 °F 50% 29.64 in 10.0 mi NW 4.6 mph - N/A   Scattered Clouds
5:53 PM 45.0 °F 41.8 °F 28.9 °F 53% 29.64 in 10.0 mi NW 5.8 mph - N/A   Scattered Clouds
6:53 PM 41.0 °F 39.0 °F 28.9 °F 62% 29.64 in 10.0 mi NW 3.5 mph - N/A   Scattered Clouds
7:53 PM 37.0 °F - 28.9 °F 73% 29.65 in 10.0 mi Calm Calm - N/A   Mostly Cloudy
8:53 PM 34.0 °F 29.8 °F 28.0 °F 79% 29.65 in 10.0 mi NW 4.6 mph - N/A   Mostly Cloudy
9:53 PM 39.0 °F 33.4 °F 28.9 °F 67% 29.66 in 10.0 mi North 8.1 mph - N/A   Mostly Cloudy
10:53 PM 37.0 °F 31.6 °F 28.9 °F 73% 29.68 in 10.0 mi NNE 6.9 mph - N/A   Mostly Cloudy
11:53 PM 34.0 °F 28.8 °F 28.0 °F 79% 29.68 in 10.0 mi NNE 5.8 mph - N/A   Mostly Cloudy